Time,TemperatureF,DewpointF,PressureIn,WindDirection,WindDirectionDegrees,WindSpeedMPH,WindSpeedGustMPH,Humidity,HourlyPrecipIn,Conditions,Clouds,dailyrainin,SoftwareType,DateUTC
2013-04-01 00:01:00,48.6,48.1,30.04,SSW,199,2.0,7.0,98,0.00,,,0.01,Wunderground v.1.15,2013-04-01 07:01:00,
2013-04-01 00:07:00,48.6,48.1,30.04,SSW,199,2.0,7.0,98,0.00,,,0.00,Wunderground v.1.15,2013-04-01 07:07:00,
2013-04-01 00:12:00,48.6,48.1,30.04,SSW,199,2.0,4.0,98,0.00,,,0.00,Wunderground v.1.15,2013-04-01 07:12:00,
2013-04-01 00:17:00,48.6,48.1,30.04,SSW,199,2.0,4.0,98,0.00,,,0.00,Wunderground v.1.15,2013-04-01 07:17:00,
2013-04-01 00:23:00,48.6,48.1,30.04,SSW,199,3.0,4.0,98,0.00,,,0.00,Wunderground v.1.15,2013-04-01 07:23:00,
2013-04-01 00:29:00,48.5,48.0,30.04,SSW,199,3.0,4.0,98,0.00,,,0.00,Wunderground v.1.15,2013-04-01 07:29:00,
2013-04-01 00:35:00,48.4,47.9,30.04,SSW,199,3.0,4.0,98,0.00,,,0.00,Wunderground v.1.15,2013-04-01 07:35:00,
2013-04-01 00:40:00,48.4,47.9,30.04,SSW,199,3.0,3.0,98,0.00,,,0.00,Wunderground v.1.15,2013-04-01 07:40:00,
2013-04-01 00:46:00,48.3,47.8,30.04,SSW,199,3.0,5.0,98,0.00,,,0.00,Wunderground v.1.15,2013-04-01 07:46:00,
2013-04-01 00:52:00,48.3,47.8,30.04,SSW,199,4.0,4.0,98,0.00,,,0.00,Wunderground v.1.15,2013-04-01 07:52:00,
2013-04-01 00:57:00,48.2,47.7,30.04,SSW,199,3.0,4.0,98,0.00,,,0.00,Wunderground v.1.15,2013-04-01 07:57:00,
2013-04-01 01:03:00,48.3,47.8,30.05,SSW,199,2.0,5.0,98,0.00,,,0.00,Wunderground v.1.15,2013-04-01 08:03:00,
2013-04-01 01:08:00,48.2,47.7,30.05,SSW,199,1.0,5.0,98,0.00,,,0.00,Wunderground v.1.15,2013-04-01 08:08:00,
2013-04-01 01:13:00,48.2,47.7,30.05,SSW,199,1.0,5.0,98,0.00,,,0.00,Wunderground v.1.15,2013-04-01 08:13:00,
2013-04-01 01:19:00,48.1,47.6,30.05,SSW,199,2.0,5.0,98,0.00,,,0.00,Wunderground v.1.15,2013-04-01 08:19:00,
2013-04-01 01:25:00,48.1,47.6,30.05,SSW,199,3.0,5.0,98,0.00,,,0.00,Wunderground v.1.15,2013-04-01 08:25:00,
2013-04-01 01:31:00,48.0,47.5,30.05,SSW,199,3.0,5.0,98,0.00,,,0.00,Wunderground v.1.15,2013-04-01 08:31:00,
2013-04-01 01:37:00,48.0,47.5,30.05,SSW,199,2.0,5.0,98,0.00,,,0.00,Wunderground v.1.15,2013-04-01 08:37:00,
2013-04-01 01:43:00,48.0,47.5,30.05,SSW,199,2.0,5.0,98,0.00,,,0.00,Wunderground v.1.15,2013-04-01 08:43:00,
2013-04-01 01:48:00,48.0,47.5,30.05,SSW,199,1.0,5.0,98,0.00,,,0.00,Wunderground v.1.15,2013-04-01 08:48:00,
2013-04-01 01:53:00,48.0,47.5,30.05,SSW,199,2.0,5.0,98,0.00,,,0.00,Wunderground v.1.15,2013-04-01 08:53:00,
2013-04-01 01:58:00,48.0,47.5,30.05,SSW,199,2.0,5.0,98,0.00,,,0.00,Wunderground v.1.15,2013-04-01 08:58:00,
2013-04-01 02:04:00,48.0,47.5,30.05,SSW,199,1.0,5.0,98,0.00,,,0.00,Wunderground v.1.15,2013-04-01 09:04:00,
2013-04-01 02:10:00,48.0,47.5,30.05,SSW,199,2.0,2.0,98,0.00,,,0.00,Wunderground v.1.15,2013-04-01 09:10:00,
2013-04-01 02:15:00,48.0,47.5,30.06,SSW,199,1.0,5.0,98,0.00,,,0.00,Wunderground v.1.15,2013-04-01 09:15:00,
2013-04-01 02:21:00,48.1,47.6,30.06,SSW,199,0.0,5.0,98,0.00,,,0.00,Wunderground v.1.15,2013-04-01 09:21:00,
2013-04-01 02:27:00,48.1,47.6,30.06,SSW,199,0.0,5.0,98,0.00,,,0.00,Wunderground v.1.15,2013-04-01 09:27:00,
2013-04-01 02:33:00,48.2,47.7,30.06,SSW,199,0.0,5.0,98,0.00,,,0.00,Wunderground v.1.15,2013-04-01 09:33:00,
2013-04-01 02:38:00,48.2,47.7,30.06,SSW,199,1.0,5.0,98,0.00,,,0.00,Wunderground v.1.15,2013-04-01 09:38:00,
2013-04-01 02:43:00,48.3,47.8,30.06,SSW,199,1.0,5.0,98,0.00,,,0.00,Wunderground v.1.15,2013-04-01 09:43:00,
2013-04-01 02:49:00,48.4,47.9,30.06,SSW,199,1.0,5.0,98,0.00,,,0.00,Wunderground v.1.15,2013-04-01 09:49:00,
2013-04-01 02:54:00,48.4,47.9,30.06,SSW,199,1.0,5.0,98,0.00,,,0.00,Wunderground v.1.15,2013-04-01 09:54:00,
2013-04-01 02:59:00,48.4,47.9,30.06,SSW,199,2.0,5.0,98,0.00,,,0.00,Wunderground v.1.15,2013-04-01 09:59:00,
2013-04-01 03:05:00,48.4,47.9,30.05,SSW,199,3.0,5.0,98,0.00,,,0.00,Wunderground v.1.15,2013-04-01 10:05:00,
2013-04-01 03:10:00,48.4,47.9,30.06,SSW,199,3.0,3.0,98,0.00,,,0.00,Wunderground v.1.15,2013-04-01 10:10:00,
2013-04-01 03:15:00,48.4,47.9,30.06,SSW,199,2.0,5.0,98,0.00,,,0.00,Wunderground v.1.15,2013-04-01 10:15:00,
2013-04-01 03:21:00,48.4,47.9,30.06,SSW,199,3.0,5.0,98,0.00,,,0.00,Wunderground v.1.15,2013-04-01 10:21:00,
2013-04-01 03:27:00,48.3,47.8,30.06,SSW,199,3.0,5.0,98,0.00,,,0.00,Wunderground v.1.15,2013-04-01 10:27:00,
2013-04-01 03:32:00,48.3,47.8,30.06,SSW,199,3.0,5.0,98,0.00,,,0.00,Wunderground v.1.15,2013-04-01 10:32:00,
2013-04-01 03:38:00,48.3,47.8,30.06,SSW,199,3.0,5.0,98,0.00,,,0.00,Wunderground v.1.15,2013-04-01 10:38:00,
2013-04-01 03:44:00,48.3,47.8,30.06,SSW,199,4.0,7.0,98,0.00,,,0.00,Wunderground v.1.15,2013-04-01 10:44:00,
2013-04-01 03:50:00,48.3,48.0,30.05,SSW,204,5.0,5.0,99,0.00,,,0.00,Wunderground v.1.15,2013-04-01 10:50:00,
2013-04-01 03:55:00,48.3,48.0,30.05,SSW,208,5.0,8.0,99,0.00,,,0.00,Wunderground v.1.15,2013-04-01 10:55:00,
2013-04-01 04:00:00,48.3,48.0,30.06,SSW,204,6.0,6.0,99,0.00,,,0.00,Wunderground v.1.15,2013-04-01 11:00:00,
2013-04-01 04:06:00,48.3,48.0,30.06,SSW,197,6.0,6.0,99,0.00,,,0.00,Wunderground v.1.15,2013-04-01 11:06:00,
2013-04-01 04:11:00,48.2,47.7,30.06,SSW,204,5.0,7.0,98,0.00,,,0.00,Wunderground v.1.15,2013-04-01 11:11:00,
2013-04-01 04:19:00,48.2,47.7,30.06,SSW,201,5.0,7.0,98,0.00,,,0.00,Wunderground v.1.15,2013-04-01 11:19:00,
2013-04-01 04:25:00,48.2,47.7,30.07,SSW,201,4.0,5.0,98,0.00,,,0.00,Wunderground v.1.15,2013-04-01 11:25:00,
2013-04-01 04:30:00,48.2,47.7,30.07,SSW,201,4.0,5.0,98,0.00,,,0.00,Wunderground v.1.15,2013-04-01 11:30:00,
2013-04-01 04:36:00,48.1,47.6,30.07,SW,222,4.0,7.0,98,0.00,,,0.00,Wunderground v.1.15,2013-04-01 11:36:00,
2013-04-01 04:41:00,48.0,47.7,30.07,SW,229,5.0,5.0,99,0.00,,,0.00,Wunderground v.1.15,2013-04-01 11:41:00,
2013-04-01 04:46:00,48.0,47.7,30.07,SW,223,5.0,6.0,99,0.00,,,0.00,Wunderground v.1.15,2013-04-01 11:46:00,
2013-04-01 04:52:00,48.0,47.7,30.07,SW,223,4.0,5.0,99,0.00,,,0.00,Wunderground v.1.15,2013-04-01 11:52:00,
2013-04-01 04:58:00,48.0,47.7,30.07,SW,223,4.0,6.0,99,0.00,,,0.00,Wunderground v.1.15,2013-04-01 11:58:00,
2013-04-01 05:03:00,48.0,47.7,30.07,SW,223,4.0,5.0,99,0.00,,,0.00,Wunderground v.1.15,2013-04-01 12:03:00,
2013-04-01 05:09:00,48.0,47.7,30.07,SW,223,4.0,5.0,99,0.00,,,0.00,Wunderground v.1.15,2013-04-01 12:09:00,
2013-04-01 05:14:00,48.0,47.7,30.07,SW,223,4.0,5.0,99,0.00,,,0.00,Wunderground v.1.15,2013-04-01 12:14:00,
2013-04-01 05:20:00,48.0,47.7,30.07,SW,223,3.0,5.0,99,0.00,,,0.00,Wunderground v.1.15,2013-04-01 12:20:00,
2013-04-01 05:25:00,48.0,47.7,30.07,SSW,212,3.0,5.0,99,0.00,,,0.00,Wunderground v.1.15,2013-04-01 12:25:00,
2013-04-01 05:31:00,48.0,47.7,30.07,SW,214,3.0,4.0,99,0.00,,,0.00,Wunderground v.1.15,2013-04-01 12:31:00,
2013-04-01 05:37:00,48.0,47.7,30.07,SW,214,3.0,5.0,99,0.00,,,0.00,Wunderground v.1.15,2013-04-01 12:37:00,
2013-04-01 05:43:00,47.9,47.6,30.07,SW,214,3.0,5.0,99,0.00,,,0.00,Wunderground v.1.15,2013-04-01 12:43:00,
2013-04-01 05:48:00,47.9,47.6,30.07,SW,214,2.0,5.0,99,0.00,,,0.00,Wunderground v.1.15,2013-04-01 12:48:00,
2013-04-01 05:54:00,47.9,47.6,30.07,SW,214,2.0,5.0,99,0.00,,,0.00,Wunderground v.1.15,2013-04-01 12:54:00,
2013-04-01 05:59:00,47.9,47.6,30.08,SW,214,2.0,5.0,99,0.00,,,0.00,Wunderground v.1.15,2013-04-01 12:59:00,
2013-04-01 06:06:00,47.9,47.6,30.08,SW,214,2.0,5.0,99,0.00,,,0.00,Wunderground v.1.15,2013-04-01 13:06:00,
2013-04-01 06:12:00,47.8,47.5,30.08,SW,214,3.0,5.0,99,0.00,,,0.00,Wunderground v.1.15,2013-04-01 13:12:00,
2013-04-01 06:17:00,47.8,47.5,30.08,SW,214,2.0,5.0,99,0.00,,,0.00,Wunderground v.1.15,2013-04-01 13:17:00,
2013-04-01 06:23:00,47.8,47.5,30.08,SW,214,2.0,5.0,99,0.00,,,0.00,Wunderground v.1.15,2013-04-01 13:23:00,
2013-04-01 06:29:00,47.7,47.4,30.08,SW,214,3.0,5.0,99,0.00,,,0.00,Wunderground v.1.15,2013-04-01 13:29:00,
2013-04-01 06:34:00,47.7,47.4,30.09,SW,214,3.0,5.0,99,0.00,,,0.00,Wunderground v.1.15,2013-04-01 13:34:00,
2013-04-01 06:39:00,47.7,47.4,30.08,SW,214,3.0,3.0,99,0.00,,,0.00,Wunderground v.1.15,2013-04-01 13:39:00,
2013-04-01 06:45:00,47.7,47.4,30.09,SW,214,3.0,5.0,99,0.00,,,0.00,Wunderground v.1.15,2013-04-01 13:45:00,
2013-04-01 06:50:00,47.7,47.4,30.09,SW,214,3.0,5.0,99,0.00,,,0.00,Wunderground v.1.15,2013-04-01 13:50:00,
2013-04-01 06:56:00,47.7,47.4,30.09,SW,214,3.0,5.0,99,0.00,,,0.00,Wunderground v.1.15,2013-04-01 13:56:00,
2013-04-01 07:02:00,47.7,47.4,30.09,SW,214,4.0,5.0,99,0.00,,,0.00,Wunderground v.1.15,2013-04-01 14:02:00,
2013-04-01 07:07:00,47.7,47.4,30.09,SW,214,4.0,5.0,99,0.00,,,0.00,Wunderground v.1.15,2013-04-01 14:07:00,
2013-04-01 07:13:00,47.7,47.4,30.09,SW,214,3.0,5.0,99,0.00,,,0.00,Wunderground v.1.15,2013-04-01 14:13:00,
2013-04-01 07:19:00,47.7,47.4,30.09,SW,214,3.0,5.0,99,0.00,,,0.00,Wunderground v.1.15,2013-04-01 14:19:00,
2013-04-01 07:25:00,47.7,47.4,30.09,SW,214,3.0,5.0,99,0.00,,,0.00,Wunderground v.1.15,2013-04-01 14:25:00,
2013-04-01 07:30:00,47.7,47.4,30.09,SW,214,4.0,5.0,99,0.00,,,0.00,Wunderground v.1.15,2013-04-01 14:30:00,
2013-04-01 07:36:00,47.7,47.4,30.09,SW,214,5.0,5.0,99,0.00,,,0.00,Wunderground v.1.15,2013-04-01 14:36:00,
2013-04-01 07:42:00,47.8,47.5,30.10,SW,214,4.0,5.0,99,0.00,,,0.00,Wunderground v.1.15,2013-04-01 14:42:00,
2013-04-01 07:48:00,47.7,47.4,30.10,SW,214,3.0,5.0,99,0.00,,,0.00,Wunderground v.1.15,2013-04-01 14:48:00,
2013-04-01 07:53:00,47.8,47.5,30.10,SW,214,3.0,5.0,99,0.00,,,0.00,Wunderground v.1.15,2013-04-01 14:53:00,
2013-04-01 07:58:00,47.8,47.5,30.10,SW,214,3.0,5.0,99,0.00,,,0.00,Wunderground v.1.15,2013-04-01 14:58:00,
2013-04-01 08:03:00,47.8,47.5,30.10,SW,214,4.0,5.0,99,0.00,,,0.00,Wunderground v.1.15,2013-04-01 15:03:00,
2013-04-01 08:09:00,47.8,47.5,30.10,SW,214,4.0,5.0,99,0.00,,,0.00,Wunderground v.1.15,2013-04-01 15:09:00,
2013-04-01 08:14:00,47.8,47.5,30.10,SW,214,4.0,5.0,99,0.00,,,0.00,Wunderground v.1.15,2013-04-01 15:14:00,
2013-04-01 08:20:00,47.9,47.6,30.10,SW,214,4.0,5.0,99,0.00,,,0.00,Wunderground v.1.15,2013-04-01 15:20:00,
2013-04-01 08:26:00,47.9,47.6,30.10,SW,214,4.0,5.0,99,0.00,,,0.00,Wunderground v.1.15,2013-04-01 15:26:00,
2013-04-01 08:33:00,47.9,47.6,30.10,SW,214,4.0,5.0,99,0.00,,,0.00,Wunderground v.1.15,2013-04-01 15:33:00,
2013-04-01 08:38:00,47.9,47.6,30.11,SW,214,3.0,5.0,99,0.00,,,0.00,Wunderground v.1.15,2013-04-01 15:38:00,
2013-04-01 08:43:00,47.9,47.6,30.11,SW,214,3.0,5.0,99,0.00,,,0.00,Wunderground v.1.15,2013-04-01 15:43:00,
2013-04-01 08:48:00,47.9,47.6,30.11,SW,214,4.0,7.0,99,0.00,,,0.00,Wunderground v.1.15,2013-04-01 15:48:00,
2013-04-01 08:54:00,47.9,47.6,30.11,SW,214,5.0,6.0,99,0.00,,,0.00,Wunderground v.1.15,2013-04-01 15:54:00,
2013-04-01 09:00:00,48.0,47.7,30.11,SW,214,4.0,4.0,99,0.00,,,0.00,Wunderground v.1.15,2013-04-01 16:00:00,
2013-04-01 09:06:00,48.1,47.8,30.11,SW,214,3.0,5.0,99,0.00,,,0.00,Wunderground v.1.15,2013-04-01 16:06:00,
2013-04-01 09:12:00,48.1,47.8,30.12,SW,214,3.0,5.0,99,0.00,,,0.00,Wunderground v.1.15,2013-04-01 16:12:00,
2013-04-01 09:17:00,48.1,47.8,30.12,SW,214,2.0,5.0,99,0.00,,,0.00,Wunderground v.1.15,2013-04-01 16:17:00,
2013-04-01 09:23:00,48.1,47.8,30.12,SW,214,3.0,5.0,99,0.00,,,0.00,Wunderground v.1.15,2013-04-01 16:23:00,
2013-04-01 09:28:00,48.2,47.9,30.12,SW,214,3.0,5.0,99,0.00,,,0.00,Wunderground v.1.15,2013-04-01 16:28:00,
2013-04-01 09:34:00,48.3,48.0,30.12,SW,214,3.0,5.0,99,0.00,,,0.00,Wunderground v.1.15,2013-04-01 16:34:00,
2013-04-01 09:39:00,48.2,47.9,30.13,SW,214,3.0,5.0,99,0.00,,,0.00,Wunderground v.1.15,2013-04-01 16:39:00,
2013-04-01 09:45:00,48.1,47.8,30.13,SW,214,3.0,5.0,99,0.00,,,0.00,Wunderground v.1.15,2013-04-01 16:45:00,
2013-04-01 09:50:00,48.1,47.8,30.13,SW,214,3.0,5.0,99,0.00,,,0.00,Wunderground v.1.15,2013-04-01 16:50:00,
2013-04-01 09:56:00,48.2,47.9,30.13,SW,214,3.0,5.0,99,0.00,,,0.00,Wunderground v.1.15,2013-04-01 16:56:00,
2013-04-01 10:03:00,48.2,47.9,30.13,SW,214,3.0,5.0,99,0.00,,,0.00,Wunderground v.1.15,2013-04-01 17:03:00,
2013-04-01 10:08:00,48.2,47.9,30.14,SW,214,3.0,5.0,99,0.00,,,0.00,Wunderground v.1.15,2013-04-01 17:08:00,
2013-04-01 10:14:00,48.2,47.9,30.14,SW,214,4.0,5.0,99,0.00,,,0.00,Wunderground v.1.15,2013-04-01 17:14:00,
2013-04-01 10:19:00,48.1,47.8,30.14,SW,214,4.0,4.0,99,0.00,,,0.00,Wunderground v.1.15,2013-04-01 17:19:00,
2013-04-01 10:24:00,48.2,47.9,30.14,SSW,211,4.0,7.0,99,0.00,,,0.00,Wunderground v.1.15,2013-04-01 17:24:00,
2013-04-01 10:31:00,48.2,47.9,30.14,SSW,196,4.0,5.0,99,0.00,,,0.00,Wunderground v.1.15,2013-04-01 17:31:00,
2013-04-01 10:36:00,48.4,48.1,30.14,SSW,196,4.0,5.0,99,0.00,,,0.00,Wunderground v.1.15,2013-04-01 17:36:00,
2013-04-01 10:42:00,48.4,48.1,30.14,SSW,196,3.0,5.0,99,0.00,,,0.00,Wunderground v.1.15,2013-04-01 17:42:00,
2013-04-01 10:48:00,48.4,48.1,30.15,SSW,196,4.0,6.0,99,0.00,,,0.00,Wunderground v.1.15,2013-04-01 17:48:00,
2013-04-01 10:54:00,48.4,48.1,30.15,SSW,196,4.0,6.0,99,0.00,,,0.00,Wunderground v.1.15,2013-04-01 17:54:00,
2013-04-01 10:59:00,48.8,48.5,30.15,SSW,196,3.0,5.0,99,0.00,,,0.00,Wunderground v.1.15,2013-04-01 17:59:00,
2013-04-01 11:05:00,49.0,48.7,30.15,SSW,196,3.0,5.0,99,0.00,,,0.00,Wunderground v.1.15,2013-04-01 18:05:00,
2013-04-01 11:11:00,48.8,48.5,30.15,SSW,196,3.0,5.0,99,0.00,,,0.00,Wunderground v.1.15,2013-04-01 18:11:00,
2013-04-01 11:17:00,48.7,48.4,30.15,SSW,196,4.0,5.0,99,0.00,,,0.00,Wunderground v.1.15,2013-04-01 18:17:00,
2013-04-01 11:23:00,49.0,48.7,30.15,SSW,196,4.0,5.0,99,0.00,,,0.00,Wunderground v.1.15,2013-04-01 18:23:00,
2013-04-01 11:28:00,49.1,48.8,30.15,SSW,196,4.0,5.0,99,0.00,,,0.00,Wunderground v.1.15,2013-04-01 18:28:00,
2013-04-01 11:34:00,49.0,48.7,30.16,SSW,196,4.0,6.0,99,0.00,,,0.00,Wunderground v.1.15,2013-04-01 18:34:00,
2013-04-01 11:39:00,49.2,48.9,30.16,SSW,196,4.0,5.0,99,0.00,,,0.00,Wunderground v.1.15,2013-04-01 18:39:00,
2013-04-01 11:45:00,49.0,48.7,30.16,SSW,196,4.0,5.0,99,0.00,,,0.00,Wunderground v.1.15,2013-04-01 18:45:00,
2013-04-01 11:50:00,48.7,48.4,30.16,SSW,196,4.0,5.0,99,0.00,,,0.00,Wunderground v.1.15,2013-04-01 18:50:00,
2013-04-01 11:55:00,48.9,48.6,30.16,SSW,196,4.0,5.0,99,0.00,,,0.00,Wunderground v.1.15,2013-04-01 18:55:00,
2013-04-01 12:02:00,49.2,48.9,30.16,SSW,196,3.0,5.0,99,0.00,,,0.00,Wunderground v.1.15,2013-04-01 19:02:00,
2013-04-01 12:08:00,49.2,48.9,30.16,SSW,196,3.0,6.0,99,0.00,,,0.00,Wunderground v.1.15,2013-04-01 19:08:00,
2013-04-01 12:13:00,49.2,48.9,30.16,SSW,196,4.0,5.0,99,0.00,,,0.00,Wunderground v.1.15,2013-04-01 19:13:00,
2013-04-01 12:18:00,49.3,49.0,30.16,SSW,196,4.0,5.0,99,0.00,,,0.00,Wunderground v.1.15,2013-04-01 19:18:00,
2013-04-01 12:24:00,49.2,48.9,30.16,SSW,196,4.0,6.0,99,0.00,,,0.00,Wunderground v.1.15,2013-04-01 19:24:00,
2013-04-01 12:29:00,49.4,49.1,30.16,SSW,196,3.0,6.0,99,0.00,,,0.00,Wunderground v.1.15,2013-04-01 19:29:00,
2013-04-01 12:34:00,49.3,49.0,30.16,SSW,196,3.0,6.0,99,0.00,,,0.00,Wunderground v.1.15,2013-04-01 19:34:00,
2013-04-01 12:39:00,49.0,48.7,30.16,SSW,196,4.0,6.0,99,0.00,,,0.00,Wunderground v.1.15,2013-04-01 19:39:00,
2013-04-01 12:45:00,49.2,48.9,30.16,SSW,196,5.0,6.0,99,0.00,,,0.00,Wunderground v.1.15,2013-04-01 19:45:00,
2013-04-01 12:51:00,49.3,49.0,30.16,SSW,196,3.0,6.0,99,0.00,,,0.00,Wunderground v.1.15,2013-04-01 19:51:00,
2013-04-01 12:56:00,49.3,49.0,30.16,SSW,196,3.0,6.0,99,0.00,,,0.00,Wunderground v.1.15,2013-04-01 19:56:00,
2013-04-01 13:02:00,49.4,49.1,30.16,SSW,196,4.0,5.0,99,0.00,,,0.00,Wunderground v.1.15,2013-04-01 20:02:00,
2013-04-01 13:08:00,49.4,49.1,30.16,SSW,196,4.0,6.0,99,0.00,,,0.00,Wunderground v.1.15,2013-04-01 20:08:00,
2013-04-01 13:13:00,49.2,48.9,30.16,SSW,196,4.0,5.0,99,0.00,,,0.00,Wunderground v.1.15,2013-04-01 20:13:00,
2013-04-01 13:18:00,49.5,49.2,30.16,SSW,196,4.0,5.0,99,0.00,,,0.00,Wunderground v.1.15,2013-04-01 20:18:00,
2013-04-01 13:23:00,49.4,48.9,30.16,SSW,196,4.0,5.0,98,0.00,,,0.00,Wunderground v.1.15,2013-04-01 20:23:00,
2013-04-01 13:29:00,49.7,49.4,30.16,SSW,196,4.0,5.0,99,0.00,,,0.00,Wunderground v.1.15,2013-04-01 20:29:00,
2013-04-01 13:34:00,49.6,49.1,30.16,SSW,198,4.0,5.0,98,0.00,,,0.00,Wunderground v.1.15,2013-04-01 20:34:00,
2013-04-01 13:41:00,49.7,49.2,30.16,SSW,200,4.0,5.0,98,0.00,,,0.00,Wunderground v.1.15,2013-04-01 20:41:00,
2013-04-01 13:46:00,49.5,49.0,30.16,SSW,202,4.0,6.0,98,0.00,,,0.00,Wunderground v.1.15,2013-04-01 20:46:00,
2013-04-01 13:51:00,49.7,49.2,30.16,SSW,202,4.0,5.0,98,0.00,,,0.00,Wunderground v.1.15,2013-04-01 20:51:00,
2013-04-01 13:57:00,49.7,49.2,30.16,SSW,202,4.0,5.0,98,0.00,,,0.00,Wunderground v.1.15,2013-04-01 20:57:00,
2013-04-01 14:03:00,49.8,49.3,30.16,SSW,202,4.0,5.0,98,0.00,,,0.00,Wunderground v.1.15,2013-04-01 21:03:00,
2013-04-01 14:09:00,49.9,49.4,30.16,SSW,202,3.0,5.0,98,0.00,,,0.00,Wunderground v.1.15,2013-04-01 21:09:00,
2013-04-01 14:14:00,50.0,49.5,30.17,SSW,202,3.0,5.0,98,0.00,,,0.00,Wunderground v.1.15,2013-04-01 21:14:00,
2013-04-01 14:20:00,50.1,49.6,30.17,SSW,202,3.0,5.0,98,0.00,,,0.00,Wunderground v.1.15,2013-04-01 21:20:00,
2013-04-01 14:25:00,50.0,49.5,30.17,SSW,202,3.0,5.0,98,0.00,,,0.00,Wunderground v.1.15,2013-04-01 21:25:00,
2013-04-01 14:31:00,49.7,49.2,30.17,SSW,202,4.0,5.0,98,0.00,,,0.00,Wunderground v.1.15,2013-04-01 21:31:00,
2013-04-01 14:37:00,49.6,49.1,30.17,SSW,202,4.0,6.0,98,0.00,,,0.00,Wunderground v.1.15,2013-04-01 21:37:00,
2013-04-01 14:42:00,49.9,49.4,30.17,SSW,202,3.0,5.0,98,0.00,,,0.00,Wunderground v.1.15,2013-04-01 21:42:00,
2013-04-01 14:48:00,50.0,49.5,30.17,SSW,202,3.0,6.0,98,0.00,,,0.00,Wunderground v.1.15,2013-04-01 21:48:00,
2013-04-01 14:53:00,50.1,49.6,30.17,SSW,202,4.0,5.0,98,0.00,,,0.00,Wunderground v.1.15,2013-04-01 21:53:00,
2013-04-01 14:59:00,50.0,49.5,30.17,SSW,204,4.0,7.0,98,0.00,,,0.00,Wunderground v.1.15,2013-04-01 21:59:00,
2013-04-01 15:04:00,50.4,49.9,30.17,SSW,204,4.0,5.0,98,0.00,,,0.00,Wunderground v.1.15,2013-04-01 22:04:00,
2013-04-01 15:09:00,50.5,50.0,30.17,SSW,204,4.0,7.0,98,0.00,,,0.00,Wunderground v.1.15,2013-04-01 22:09:00,
2013-04-01 15:15:00,50.6,50.1,30.17,SSW,207,4.0,7.0,98,0.00,,,0.00,Wunderground v.1.15,2013-04-01 22:15:00,
2013-04-01 15:20:00,50.5,49.7,30.17,SSW,212,4.0,5.0,97,0.00,,,0.00,Wunderground v.1.15,2013-04-01 22:20:00,
2013-04-01 15:26:00,50.5,49.7,30.17,SW,216,5.0,8.0,97,0.00,,,0.00,Wunderground v.1.15,2013-04-01 22:26:00,
2013-04-01 15:31:00,50.2,49.4,30.17,SW,231,5.0,7.0,97,0.00,,,0.00,Wunderground v.1.15,2013-04-01 22:31:00,
2013-04-01 15:37:00,50.1,49.3,30.17,SW,218,6.0,8.0,97,0.00,,,0.00,Wunderground v.1.15,2013-04-01 22:37:00,
2013-04-01 15:43:00,50.2,49.4,30.17,SW,227,6.0,8.0,97,0.00,,,0.00,Wunderground v.1.15,2013-04-01 22:43:00,
2013-04-01 15:48:00,50.4,49.6,30.17,SW,221,6.0,8.0,97,0.00,,,0.00,Wunderground v.1.15,2013-04-01 22:48:00,
2013-04-01 15:54:00,50.4,49.3,30.17,SW,229,6.0,8.0,96,0.00,,,0.00,Wunderground v.1.15,2013-04-01 22:54:00,
2013-04-01 16:00:00,50.7,49.9,30.17,SW,224,6.0,6.0,97,0.00,,,0.00,Wunderground v.1.15,2013-04-01 23:00:00,
2013-04-01 16:05:00,50.4,49.3,30.17,SW,225,6.0,9.0,96,0.00,,,0.00,Wunderground v.1.15,2013-04-01 23:05:00,
2013-04-01 16:10:00,50.3,49.2,30.17,SW,216,7.0,9.0,96,0.00,,,0.00,Wunderground v.1.15,2013-04-01 23:10:00,
2013-04-01 16:18:00,50.3,49.2,30.17,SSW,213,6.0,9.0,96,0.00,,,0.00,Wunderground v.1.15,2013-04-01 23:18:00,
2013-04-01 16:24:00,50.3,49.5,30.17,SW,234,6.0,6.0,97,0.00,,,0.00,Wunderground v.1.15,2013-04-01 23:24:00,
2013-04-01 16:30:00,50.2,49.4,30.17,SW,224,5.0,6.0,97,0.00,,,0.00,Wunderground v.1.15,2013-04-01 23:30:00,
2013-04-01 16:36:00,50.2,49.4,30.17,SW,223,6.0,9.0,97,0.00,,,0.00,Wunderground v.1.15,2013-04-01 23:36:00,
2013-04-01 16:42:00,50.2,49.4,30.17,SW,214,6.0,8.0,97,0.00,,,0.00,Wunderground v.1.15,2013-04-01 23:42:00,
2013-04-01 16:48:00,50.1,49.3,30.17,SW,233,7.0,10.0,97,0.00,,,0.00,Wunderground v.1.15,2013-04-01 23:48:00,
2013-04-01 16:53:00,50.5,49.7,30.17,SW,231,8.0,8.0,97,0.00,,,0.00,Wunderground v.1.15,2013-04-01 23:53:00,
2013-04-01 16:59:00,50.5,49.7,30.17,SW,229,7.0,8.0,97,0.00,,,0.00,Wunderground v.1.15,2013-04-01 23:59:00,
2013-04-01 17:04:00,50.6,49.8,30.17,SW,233,6.0,6.0,97,0.00,,,0.00,Wunderground v.1.15,2013-04-02 00:04:00,
2013-04-01 17:09:00,50.4,49.6,30.17,SW,217,6.0,9.0,97,0.00,,,0.00,Wunderground v.1.15,2013-04-02 00:09:00,
2013-04-01 17:14:00,50.2,49.4,30.17,SW,221,6.0,7.0,97,0.00,,,0.00,Wunderground v.1.15,2013-04-02 00:14:00,
2013-04-01 17:20:00,50.1,49.3,30.17,SW,227,6.0,8.0,97,0.00,,,0.00,Wunderground v.1.15,2013-04-02 00:20:00,
2013-04-01 17:26:00,49.8,49.0,30.17,SW,225,6.0,8.0,97,0.00,,,0.00,Wunderground v.1.15,2013-04-02 00:26:00,
2013-04-01 17:32:00,49.8,49.0,30.17,SW,225,6.0,7.0,97,0.00,,,0.00,Wunderground v.1.15,2013-04-02 00:32:00,
2013-04-01 17:38:00,49.8,49.0,30.17,SW,229,6.0,7.0,97,0.00,,,0.00,Wunderground v.1.15,2013-04-02 00:38:00,
2013-04-01 17:43:00,49.6,48.8,30.17,SW,228,6.0,7.0,97,0.00,,,0.00,Wunderground v.1.15,2013-04-02 00:43:00,
2013-04-01 17:49:00,49.7,48.9,30.17,SSW,206,6.0,7.0,97,0.00,,,0.00,Wunderground v.1.15,2013-04-02 00:49:00,
2013-04-01 17:54:00,49.6,48.8,30.17,SSW,193,5.0,7.0,97,0.00,,,0.00,Wunderground v.1.15,2013-04-02 00:54:00,
2013-04-01 17:59:00,49.3,48.5,30.17,SW,224,5.0,8.0,97,0.00,,,0.00,Wunderground v.1.15,2013-04-02 00:59:00,
2013-04-01 18:05:00,49.3,48.5,30.17,SW,217,5.0,7.0,97,0.00,,,0.00,Wunderground v.1.15,2013-04-02 01:05:00,
2013-04-01 18:11:00,49.2,48.4,30.17,SSW,209,5.0,5.0,97,0.00,,,0.00,Wunderground v.1.15,2013-04-02 01:11:00,
2013-04-01 18:17:00,48.8,48.0,30.17,SW,224,5.0,7.0,97,0.00,,,0.00,Wunderground v.1.15,2013-04-02 01:17:00,
2013-04-01 18:23:00,48.6,47.8,30.18,SSW,211,5.0,6.0,97,0.00,,,0.00,Wunderground v.1.15,2013-04-02 01:23:00,
2013-04-01 18:28:00,48.6,47.8,30.18,SSW,211,5.0,6.0,97,0.00,,,0.00,Wunderground v.1.15,2013-04-02 01:28:00,
2013-04-01 18:33:00,48.5,47.7,30.18,SW,223,5.0,8.0,97,0.00,,,0.00,Wunderground v.1.15,2013-04-02 01:33:00,
2013-04-01 18:39:00,48.5,47.7,30.18,SW,229,6.0,8.0,97,0.00,,,0.00,Wunderground v.1.15,2013-04-02 01:39:00,
2013-04-01 18:45:00,48.6,47.8,30.18,SW,217,6.0,6.0,97,0.00,,,0.00,Wunderground v.1.15,2013-04-02 01:45:00,
2013-04-01 18:51:00,48.5,47.7,30.18,SW,215,6.0,6.0,97,0.00,,,0.00,Wunderground v.1.15,2013-04-02 01:51:00,
2013-04-01 18:57:00,48.5,47.7,30.18,SW,225,6.0,7.0,97,0.00,,,0.00,Wunderground v.1.15,2013-04-02 01:57:00,
2013-04-01 19:02:00,48.5,47.7,30.18,SW,225,5.0,6.0,97,0.00,,,0.00,Wunderground v.1.15,2013-04-02 02:02:00,
2013-04-01 19:08:00,48.5,47.7,30.18,SW,221,5.0,7.0,97,0.00,,,0.00,Wunderground v.1.15,2013-04-02 02:08:00,
2013-04-01 19:13:00,48.6,47.8,30.18,SW,224,5.0,5.0,97,0.00,,,0.00,Wunderground v.1.15,2013-04-02 02:13:00,
2013-04-01 19:18:00,48.7,47.9,30.18,SW,221,4.0,5.0,97,0.00,,,0.00,Wunderground v.1.15,2013-04-02 02:18:00,
2013-04-01 19:23:00,48.7,47.9,30.18,SW,215,4.0,7.0,97,0.00,,,0.00,Wunderground v.1.15,2013-04-02 02:23:00,
2013-04-01 19:29:00,48.6,47.8,30.18,SW,221,5.0,7.0,97,0.00,,,0.00,Wunderground v.1.15,2013-04-02 02:29:00,
2013-04-01 19:35:00,48.3,47.5,30.18,SW,229,6.0,8.0,97,0.00,,,0.00,Wunderground v.1.15,2013-04-02 02:35:00,
2013-04-01 19:41:00,48.3,47.5,30.18,SW,226,7.0,7.0,97,0.00,,,0.00,Wunderground v.1.15,2013-04-02 02:41:00,
2013-04-01 19:46:00,48.2,47.4,30.18,SW,217,6.0,9.0,97,0.00,,,0.00,Wunderground v.1.15,2013-04-02 02:46:00,
2013-04-01 19:52:00,48.2,47.4,30.18,SSW,211,6.0,6.0,97,0.00,,,0.00,Wunderground v.1.15,2013-04-02 02:52:00,
2013-04-01 19:58:00,48.1,47.0,30.18,SW,231,5.0,7.0,96,0.00,,,0.00,Wunderground v.1.15,2013-04-02 02:58:00,
2013-04-01 20:03:00,47.9,46.8,30.18,SW,223,5.0,8.0,96,0.00,,,0.00,Wunderground v.1.15,2013-04-02 03:03:00,
2013-04-01 20:08:00,47.9,46.8,30.18,SW,223,6.0,8.0,96,0.00,,,0.00,Wunderground v.1.15,2013-04-02 03:08:00,
2013-04-01 20:13:00,47.8,47.0,30.18,SW,226,5.0,8.0,97,0.00,,,0.00,Wunderground v.1.15,2013-04-02 03:13:00,
2013-04-01 20:19:00,47.9,47.1,30.18,SW,219,6.0,8.0,97,0.00,,,0.00,Wunderground v.1.15,2013-04-02 03:19:00,
2013-04-01 20:24:00,47.9,47.1,30.18,SW,220,5.0,10.0,97,0.00,,,0.00,Wunderground v.1.15,2013-04-02 03:24:00,
2013-04-01 20:30:00,47.8,47.0,30.18,SW,221,6.0,7.0,97,0.00,,,0.00,Wunderground v.1.15,2013-04-02 03:30:00,
2013-04-01 20:36:00,47.5,46.7,30.19,SSW,213,7.0,8.0,97,0.00,,,0.00,Wunderground v.1.15,2013-04-02 03:36:00,
2013-04-01 20:41:00,47.5,46.7,30.19,SW,220,7.0,7.0,97,0.00,,,0.00,Wunderground v.1.15,2013-04-02 03:41:00,
2013-04-01 20:46:00,47.6,46.8,30.19,SW,215,5.0,7.0,97,0.00,,,0.00,Wunderground v.1.15,2013-04-02 03:46:00,
2013-04-01 20:51:00,47.6,46.8,30.19,SW,216,4.0,6.0,97,0.00,,,0.00,Wunderground v.1.15,2013-04-02 03:51:00,
2013-04-01 20:57:00,47.7,46.9,30.19,SW,219,4.0,6.0,97,0.00,,,0.00,Wunderground v.1.15,2013-04-02 03:57:00,
2013-04-01 21:00:00,47.7,46.9,30.19,SW,219,4.0,7.0,97,0.00,,,0.00,Wunderground v.1.15,2013-04-02 04:00:00,
2013-04-01 21:01:00,47.6,46.8,30.19,SW,219,4.0,7.0,97,0.00,,,0.00,Wunderground v.1.15,2013-04-02 04:01:00,
2013-04-01 21:03:00,47.6,46.8,30.19,SW,219,4.0,7.0,97,0.00,,,0.00,Wunderground v.1.15,2013-04-02 04:03:00,
2013-04-01 21:04:00,47.6,46.8,30.19,SW,219,4.0,7.0,97,0.00,,,0.00,Wunderground v.1.15,2013-04-02 04:04:00,
2013-04-01 21:09:00,47.4,46.6,30.19,SW,223,5.0,7.0,97,0.00,,,0.00,Wunderground v.1.15,2013-04-02 04:09:00,
2013-04-01 21:15:00,47.5,46.7,30.20,SW,225,5.0,5.0,97,0.00,,,0.00,Wunderground v.1.15,2013-04-02 04:15:00,
2013-04-01 21:21:00,47.4,46.6,30.20,SW,223,5.0,6.0,97,0.00,,,0.00,Wunderground v.1.15,2013-04-02 04:21:00,
2013-04-01 21:26:00,47.5,46.7,30.20,SW,217,5.0,6.0,97,0.00,,,0.00,Wunderground v.1.15,2013-04-02 04:26:00,
2013-04-01 21:31:00,47.6,46.8,30.20,SW,218,4.0,5.0,97,0.00,,,0.00,Wunderground v.1.15,2013-04-02 04:31:00,
2013-04-01 21:38:00,47.5,46.7,30.20,SSW,207,4.0,5.0,97,0.00,,,0.00,Wunderground v.1.15,2013-04-02 04:38:00,
2013-04-01 21:43:00,47.5,46.7,30.20,SSW,202,4.0,7.0,97,0.00,,,0.00,Wunderground v.1.15,2013-04-02 04:43:00,
2013-04-01 21:48:00,47.4,46.6,30.19,SSW,205,4.0,7.0,97,0.00,,,0.00,Wunderground v.1.15,2013-04-02 04:48:00,
2013-04-01 21:53:00,47.4,46.9,30.19,SSW,205,3.0,5.0,98,0.00,,,0.00,Wunderground v.1.15,2013-04-02 04:53:00,
2013-04-01 21:59:00,47.4,46.6,30.20,SSW,205,2.0,5.0,97,0.00,,,0.00,Wunderground v.1.15,2013-04-02 04:59:00,
2013-04-01 22:05:00,47.3,46.5,30.19,SSW,205,3.0,5.0,97,0.00,,,0.00,Wunderground v.1.15,2013-04-02 05:05:00,
2013-04-01 22:11:00,47.2,46.4,30.20,SSW,205,3.0,5.0,97,0.00,,,0.00,Wunderground v.1.15,2013-04-02 05:11:00,
2013-04-01 22:16:00,47.3,46.8,30.20,SSW,205,3.0,5.0,98,0.00,,,0.00,Wunderground v.1.15,2013-04-02 05:16:00,
2013-04-01 22:22:00,47.1,46.3,30.20,SSW,205,3.0,5.0,97,0.00,,,0.00,Wunderground v.1.15,2013-04-02 05:22:00,
2013-04-01 22:28:00,47.2,46.7,30.20,SSW,205,3.0,5.0,98,0.00,,,0.00,Wunderground v.1.15,2013-04-02 05:28:00,
2013-04-01 22:33:00,47.2,46.7,30.19,SSW,205,3.0,5.0,98,0.00,,,0.00,Wunderground v.1.15,2013-04-02 05:33:00,
2013-04-01 22:39:00,47.0,46.5,30.19,SSW,205,3.0,5.0,98,0.00,,,0.00,Wunderground v.1.15,2013-04-02 05:39:00,
2013-04-01 22:44:00,46.9,46.4,30.20,SSW,205,3.0,5.0,98,0.00,,,0.00,Wunderground v.1.15,2013-04-02 05:44:00,
2013-04-01 22:50:00,46.8,46.3,30.20,SSW,205,3.0,5.0,98,0.00,,,0.00,Wunderground v.1.15,2013-04-02 05:50:00,
2013-04-01 22:55:00,46.6,46.1,30.20,SSW,205,4.0,5.0,98,0.00,,,0.00,Wunderground v.1.15,2013-04-02 05:55:00,
2013-04-01 23:00:00,46.7,46.2,30.20,SSW,205,3.0,5.0,98,0.00,,,0.00,Wunderground v.1.15,2013-04-02 06:00:00,
2013-04-01 23:06:00,46.7,46.2,30.19,SSW,205,3.0,5.0,98,0.00,,,0.00,Wunderground v.1.15,2013-04-02 06:06:00,
2013-04-01 23:11:00,46.7,46.2,30.19,SSW,205,2.0,5.0,98,0.00,,,0.00,Wunderground v.1.15,2013-04-02 06:11:00,
2013-04-01 23:16:00,46.8,46.3,30.19,SSW,205,2.0,5.0,98,0.00,,,0.00,Wunderground v.1.15,2013-04-02 06:16:00,
2013-04-01 23:21:00,46.8,46.3,30.20,SSW,205,2.0,5.0,98,0.00,,,0.00,Wunderground v.1.15,2013-04-02 06:21:00,
2013-04-01 23:27:00,46.7,46.2,30.20,SSW,205,2.0,5.0,98,0.00,,,0.00,Wunderground v.1.15,2013-04-02 06:27:00,
2013-04-01 23:32:00,46.7,46.2,30.19,SSW,205,2.0,5.0,98,0.00,,,0.00,Wunderground v.1.15,2013-04-02 06:32:00,
2013-04-01 23:37:00,46.7,46.2,30.19,SSW,205,2.0,5.0,98,0.00,,,0.00,Wunderground v.1.15,2013-04-02 06:37:00,
2013-04-01 23:43:00,46.7,46.2,30.19,SSW,205,1.0,5.0,98,0.00,,,0.00,Wunderground v.1.15,2013-04-02 06:43:00,
2013-04-01 23:48:00,46.7,46.2,30.19,SSW,205,0.0,5.0,98,0.00,,,0.00,Wunderground v.1.15,2013-04-02 06:48:00,
2013-04-01 23:54:00,46.7,46.2,30.19,SSW,205,0.0,5.0,98,0.00,,,0.00,Wunderground v.1.15,2013-04-02 06:54:00,